Location: Ostrava
(49.8330°N, 18.2830°E)
Time: 19:48:35
(UTC+01:00)

Cosmos 2221 - Visible Passes

Search period start: 28 March 2015 00:00
Search period end: 07 April 2015 01:00
Orbit: 596 x 620 km, 82.5° (Epoch: 28 March)

Date Brightness Start Highest point End Pass type
(mag) Time Alt. Az. Time Alt. Az. Time Alt. Az.
28 Mar 6.2 04:08:16 10° NE 04:09:15 11° ENE 04:10:25 10° ENE visible
28 Mar 5.0 19:55:45 10° SW 19:59:26 25° WNW 20:03:04 10° NNW visible
29 Mar 5.8 05:20:49 10° NNE 05:23:31 16° ENE 05:26:20 10° ESE visible
29 Mar 5.7 21:10:42 10° WSW 21:13:38 17° WNW 21:16:26 10° NNW visible
30 Mar 5.2 05:34:09 10° NNE 05:37:42 25° ENE 05:41:17 10° SE visible
30 Mar 2.7 19:45:00 10° SSW 19:49:22 81° W 19:53:46 10° N visible
30 Mar 6.2 21:26:32 10° WNW 21:27:54 11° WNW 21:29:04 10° NW visible
31 Mar 4.3 05:47:45 10° N 05:51:48 38° ENE 05:55:49 10° SE visible
31 Mar 3.7 19:59:05 10° SSW 20:03:21 50° WNW 20:07:36 10° N visible
01 Apr 4.7 20:13:27 10° SW 20:17:23 31° WNW 20:21:17 10° N visible
02 Apr 6.1 04:39:22 10° NNE 04:41:22 13° ENE 04:43:32 10° E visible
02 Apr 5.5 20:28:09 10° WSW 20:31:30 21° WNW 20:34:46 10° NNW visible
03 Apr 5.5 04:52:26 10° NNE 04:55:35 20° ENE 04:58:48 10° ESE visible
03 Apr 6.0 20:43:22 10° W 20:45:43 14° WNW 20:47:53 10° NNW visible
04 Apr 4.7 05:05:54 10° N 05:09:42 30° ENE 05:13:31 10° SE visible
05 Apr 3.7 05:19:33 10° N 05:23:44 48° ENE 05:27:53 10° SSE visible
06 Apr 6.1 03:58:25 10° NE 03:59:08 10° ENE 04:00:04 10° ENE visible
06 Apr 2.7 05:33:22 10° N 05:37:41 79° ENE 05:41:57 10° SSE visible
